[[{"header":{"parameterUnit":"m.s-1","parameterCategory":1,"la1":30.2991,"la2":30.254,"lo1":-89.0895,"lo2":-89.0444,"dy":0.0017,"dx":0.0017,"nx":28,"ny":28,"refTime":"2025-08-05T21:00:00:Z","depth":0,"parameterNumber":2,"parameterNumberName":"U-component_of_WINDS"},"data":[0,0,0,0,0,0,0,0,0,0,0,0,0,0,0,0,0,0,0,0,0,0,0,0,0,0,0,0,0,0,0,0,0,0,0,0,0,0,0,0,0,0,0,0,0,0,0,0,0,0,0,0,0,0,0,0,0,0,-1.3345,-1.3344,0,-1.3252,-1.3251,-1.325,-1.3208,-1.3208,-1.3209,-1.3209,-1.3109,-1.3106,-1.3103,0,0,0,0,0,0,0,0,0,0,0,0,0,-1.3483,-1.3481,-1.3346,-1.3344,-1.3343,-1.3252,-1.3251,-1.325,-1.3208,-1.3208,-1.3209,-1.3209,-1.3109,-1.3106,-1.3103,0,0,0,0,0,0,0,0,0,0,0,0,0,-1.341,-1.348,-1.3346,-1.3312,-1.3308,-1.3253,-1.3251,-1.325,-1.3208,-1.3208,-1.3209,-1.3209,-1.3111,-1.3106,-1.3102,-1.3073,0,0,-1.309,-1.3088,0,0,0,0,0,0,0,0,-1.3414,-1.3405,-1.3318,-1.3314,-1.3309,-1.3242,-1.3263,-1.319,-1.3208,-1.3246,-1.3209,-1.3209,-1.3153,-1.3145,-1.3127,-1.3068,-1.3064,-1.3089,-1.3087,-1.3085,-1.3084,0,0,0,0,0,0,0,-1.3419,-1.3409,-1.3308,-1.3317,-1.3311,-1.33,-1.3289,-1.3249,-1.3199,-1.3243,-1.3239,-1.3229,-1.315,-1.3131,-1.3124,-1.3062,-1.3089,-1.3086,-1.3083,-1.3081,-1.2975,-1.2975,0,0,0,0,0,0,-1.3431,-1.3413,-1.3311,-1.3306,-1.3364,-1.3297,-1.3286,-1.3263,-1.3199,-1.319,-1.3229,-1.3228,-1.3138,-1.3129,-1.3121,-1.3082,-1.3085,-1.3081,-1.3079,-1.2975,-1.2975,-1.2975,0,0,0,0,0,0,-1.3434,-1.3422,-1.3315,-1.3359,-1.3344,-1.3295,-1.327,-1.3262,-1.3242,-1.3189,-1.318,-1.3219,-1.3138,-1.3126,-1.3085,-1.3078,-1.3079,-1.3075,-1.2976,-1.2975,-1.2975,-1.3004,0,0,0,0,0,0,-1.3438,-1.3423,-1.3413,-1.3359,-1.3342,-1.3283,-1.3269,-1.326,-1.3236,-1.3233,-1.3177,-1.3168,-1.3137,-1.3092,-1.3081,-1.3072,-1.3072,-1.2976,-1.2976,-1.2975,-1.3004,-1.3005,-1.3006,0,0,0,0,0,-1.3443,-1.3424,-1.3412,-1.34,-1.3328,-1.3283,-1.3273,-1.3239,-1.3235,-1.3223,-1.319,-1.317,-1.3081,-1.3088,-1.3076,-1.3065,-1.2976,-1.2976,-1.2975,-1.3003,-1.3005,-1.3006,0,0,0,0,0,0,-1.3476,-1.3416,-1.3403,-1.3365,-1.333,-1.3276,-1.3259,-1.3241,-1.3204,-1.3203,-1.3161,-1.3149,-1.3112,-1.3084,-1.3094,-1.3033,-1.3027,-1.3024,-1.3053,-1.3053,-1.3054,-1.3061,-1.3069,0,0,0,0,0,-1.3479,-1.3449,-1.3397,-1.3369,-1.3352,-1.3309,-1.3288,-1.3266,-1.3226,-1.321,-1.3173,-1.3134,-1.3098,-1.3074,-1.3037,-1.3,-1.2987,-1.2987,-1.2988,-1.2989,-1.2986,-1.2965,-1.2964,-1.2972,-1.2972,-1.2972,0,0,-1.3484,-1.3448,-1.3431,-1.3375,-1.3345,-1.3313,-1.3297,-1.3264,-1.324,-1.3204,-1.3164,-1.3136,-1.309,-1.3051,-1.3032,-1.3027,-1.2981,-1.2988,-1.2989,-1.2986,-1.2964,-1.2963,-1.2962,-1.2972,-1.2972,-1.2972,0,0,-1.3479,-1.3448,-1.3422,-1.3392,-1.3347,-1.3319,-1.3313,-1.3262,-1.3242,-1.3201,-1.3175,-1.3145,-1.3082,-1.3051,-1.3026,-1.301,-1.299,-1.2999,-1.3004,-1.2983,-1.2983,-1.2982,-1.2976,-1.2974,-1.2997,-1.2997,-1.2997,0,-1.3491,-1.3444,-1.341,-1.3379,-1.3355,-1.3324,-1.3296,-1.3269,-1.3213,-1.3197,-1.3193,-1.3114,-1.3081,-1.3034,-1.3031,-1.3012,-1.3003,-1.3005,-1.2986,-1.2985,-1.2983,-1.2977,-1.2975,-1.2998,-1.2998,-1.2998,-1.2998,0,-1.346,-1.3428,-1.3412,-1.3362,-1.3335,-1.3306,-1.3267,-1.3245,-1.3225,-1.3197,-1.3155,-1.3115,-1.3069,-1.3057,-1.3036,-1.3007,-1.3005,-1.2994,-1.2987,-1.2985,-1.2978,-1.2975,-1.3,-1.3,-1.2999,-1.2999,0,0,-1.3471,-1.3404,-1.3398,-1.3375,-1.3324,-1.3297,-1.3267,-1.3224,-1.3206,-1.3169,-1.3141,-1.309,-1.308,-1.3052,-1.3028,-1.301,-1.2999,-1.3,-1.2999,-1.3001,-1.2965,-1.2973,-1.2971,-1.2987,-1.2986,-1.2985,-1.2968,0,-1.3457,-1.3403,-1.3372,-1.333,-1.3299,-1.327,-1.3243,-1.3208,-1.3181,-1.315,-1.312,-1.3084,-1.3074,-1.3057,-1.3038,-1.3005,-1.2991,-1.3005,-1.2959,-1.2958,-1.2971,-1.2967,-1.2976,-1.2961,-1.2966,-1.2965,-1.2965,0,-1.3434,-1.34,-1.3355,-1.3308,-1.3294,-1.327,-1.3229,-1.3201,-1.316,-1.3142,-1.3112,-1.3088,-1.3054,-1.305,-1.3001,-1.3012,-1.2991,-1.2972,-1.2971,-1.2964,-1.2961,-1.296,-1.2956,-1.2954,-1.296,-1.2961,-1.2961,0,-1.3446,-1.3388,-1.3354,-1.3335,-1.3279,-1.3264,-1.3239,-1.32,-1.3176,-1.314,-1.3124,-1.3084,-1.3061,-1.303,-1.2996,-1.2996,-1.295,-1.2944,-1.2933,-1.2934,-1.2924,-1.2925,-1.2916,-1.2912,-1.2912,-1.2912,-1.2912,0,-1.3433,-1.3407,-1.3359,-1.3337,-1.3307,-1.3272,-1.3242,-1.3215,-1.318,-1.3152,-1.3124,-1.3098,-1.3055,-1.3024,-1.2996,-1.296,-1.295,-1.2934,-1.2927,-1.2936,-1.2938,-1.2921,-1.2921,-1.2912,-1.2912,-1.2912,-1.2912,0,-1.3441,-1.3408,-1.3368,-1.332,-1.3307,-1.3286,-1.3244,-1.3222,-1.3194,-1.3159,-1.3149,-1.3105,-1.3067,-1.303,-1.2978,-1.296,-1.2924,-1.2915,-1.2938,-1.2934,-1.2926,-1.2927,-1.2905,-1.29,-1.29,-1.29,-1.2901,0,-1.3435,-1.3414,-1.3364,-1.3344,-1.3321,-1.3289,-1.3266,-1.3231,-1.3207,-1.3161,-1.3144,-1.3104,-1.307,-1.3011,-1.2973,-1.2934,-1.2923,-1.2918,-1.2916,-1.2927,-1.2922,-1.2923,-1.2921,-1.2919,-1.2919,-1.2919,-1.2919,0,-1.3427,-1.3412,-1.338,-1.3343,-1.3317,-1.3285,-1.3252,-1.3237,-1.3196,-1.3171,-1.3132,-1.3106,-1.3055,-1.3015,-1.2972,-1.2945,-1.2925,-1.292,-1.2915,-1.2924,-1.2938,-1.293,-1.294,-1.292,-1.292,-1.292,-1.292,-1.292,-1.3427,-1.3407,-1.3369,-1.3335,-1.3307,-1.3278,-1.3255,-1.3225,-1.3193,-1.3149,-1.3131,-1.3092,-1.3052,-1.2992,-1.2966,-1.2934,-1.2929,-1.2923,-1.2921,-1.2919,-1.2921,-1.2945,-1.2926,-1.2926,-1.2926,-1.2926,-1.2926,0,-1.3417,-1.3392,-1.3361,-1.3317,-1.329,-1.3276,-1.3239,-1.3217,-1.3184,-1.3149,-1.3118,-1.3073,-1.3035,-1.2996,-1.2955,-1.2938,-1.2927,-1.2928,-1.2929,-1.2923,-1.2928,-1.2936,-1.2937,-1.2937,-1.2937,-1.2937,-1.2937,-1.2937,-1.3409,-1.3375,-1.3356,-1.3308,-1.3282,-1.3246,-1.3226,-1.3198,-1.3171,-1.3124,-1.3092,-1.3068,-1.3031,-1.2988,-1.2952,-1.2942,-1.2928,-1.2931,-1.2917,-1.2923,-1.2922,-1.2922,-1.2929,-1.2928,-1.2928,-1.2914,-1.2914,-1.2914]},{"header":{"parameterUnit":"m.s-1","parameterCategory":1,"la1":30.2991,"la2":30.254,"lo1":-89.0895,"lo2":-89.0444,"dy":0.0017,"dx":0.0017,"nx":28,"ny":28,"refTime":"2025-08-05T21:00:00:Z","depth":0,"parameterNumber":3,"parameterNumberName":"V-component_of_WINDS"},"data":[0,0,0,0,0,0,0,0,0,0,0,0,0,0,0,0,0,0,0,0,0,0,0,0,0,0,0,0,0,0,0,0,0,0,0,0,0,0,0,0,0,0,0,0,0,0,0,0,0,0,0,0,0,0,0,0,0,0,1.6702,1.6701,0,1.6643,1.6642,1.6642,1.6629,1.663,1.663,1.663,1.6568,1.6566,1.6564,0,0,0,0,0,0,0,0,0,0,0,0,0,1.6801,1.6799,1.6702,1.6701,1.67,1.6643,1.6642,1.6642,1.6629,1.663,1.663,1.6631,1.6569,1.6566,1.6564,0,0,0,0,0,0,0,0,0,0,0,0,0,1.6752,1.6799,1.6702,1.6687,1.6685,1.6643,1.6642,1.6641,1.6629,1.663,1.663,1.6631,1.657,1.6567,1.6564,1.6532,0,0,1.6554,1.6553,0,0,0,0,0,0,0,0,1.6754,1.6748,1.669,1.6688,1.6686,1.6644,1.6655,1.6604,1.6629,1.665,1.663,1.6631,1.6593,1.6588,1.6575,1.6529,1.6526,1.6554,1.6552,1.6551,1.655,0,0,0,0,0,0,0,1.6758,1.675,1.6679,1.6689,1.6687,1.6683,1.6677,1.6645,1.6619,1.6648,1.6647,1.6641,1.6592,1.6578,1.6574,1.6525,1.6554,1.6551,1.6549,1.6548,1.6448,1.6447,0,0,0,0,0,0,1.6764,1.6753,1.668,1.6677,1.6723,1.6681,1.6674,1.6657,1.6619,1.6614,1.664,1.664,1.6583,1.6577,1.6572,1.653,1.6551,1.6548,1.6546,1.6449,1.6448,1.6447,0,0,0,0,0,0,1.6766,1.6758,1.6683,1.6715,1.6705,1.6678,1.666,1.6655,1.6642,1.6613,1.6608,1.6632,1.6584,1.6576,1.6541,1.6528,1.6546,1.6544,1.645,1.6448,1.6447,1.6448,0,0,0,0,0,0,1.6769,1.6759,1.6747,1.6715,1.6703,1.6654,1.6659,1.6654,1.6637,1.6636,1.6603,1.6598,1.6584,1.6546,1.6538,1.6524,1.6541,1.6451,1.6449,1.6448,1.6449,1.6447,1.6445,0,0,0,0,0,1.6773,1.6749,1.6746,1.6737,1.6688,1.6653,1.6647,1.6631,1.6636,1.6623,1.6604,1.6599,1.6531,1.6543,1.6534,1.6518,1.6451,1.6449,1.6448,1.645,1.6447,1.6445,0,0,0,0,0,0,1.6779,1.6744,1.6741,1.6706,1.6683,1.6651,1.6635,1.6629,1.6603,1.6604,1.6585,1.6578,1.6544,1.6528,1.6541,1.6485,1.6491,1.6488,1.6496,1.6493,1.6492,1.6495,1.6539,0,0,0,0,0,1.6777,1.6753,1.6723,1.6695,1.6684,1.6662,1.6646,1.6636,1.6611,1.6601,1.6579,1.6555,1.6527,1.651,1.6483,1.6447,1.6439,1.6432,1.6431,1.6429,1.6425,1.6404,1.64,1.6441,1.6441,1.6441,0,0,1.6771,1.6749,1.6735,1.6696,1.6677,1.6651,1.6653,1.6626,1.6607,1.6596,1.6562,1.6546,1.6517,1.6481,1.6464,1.6467,1.6413,1.6427,1.6426,1.6423,1.6402,1.6398,1.6394,1.6439,1.644,1.644,0,0,1.6747,1.6729,1.6703,1.6684,1.6655,1.664,1.6634,1.6604,1.6592,1.6558,1.655,1.6526,1.648,1.646,1.6443,1.6412,1.6406,1.6404,1.6393,1.6372,1.6369,1.6366,1.6353,1.6349,1.6401,1.6401,1.6401,0,1.6743,1.6705,1.669,1.6663,1.6646,1.6637,1.661,1.6592,1.6556,1.6543,1.6547,1.6489,1.6469,1.6428,1.642,1.6408,1.6399,1.6407,1.6371,1.6368,1.6365,1.6352,1.6348,1.6401,1.6401,1.6401,1.6401,0,1.6701,1.6675,1.6657,1.6623,1.6604,1.6577,1.6557,1.654,1.6532,1.6516,1.6481,1.6457,1.6425,1.6415,1.6407,1.6372,1.6374,1.6375,1.6381,1.6361,1.6349,1.6344,1.64,1.64,1.6401,1.6401,0,0,1.6678,1.6637,1.663,1.6614,1.6582,1.656,1.6533,1.6503,1.6487,1.6463,1.6438,1.64,1.64,1.6382,1.6371,1.6353,1.6328,1.6355,1.6354,1.635,1.6287,1.6285,1.628,1.6325,1.6324,1.6323,1.6289,0,1.6649,1.66,1.6586,1.6545,1.6519,1.651,1.6486,1.6463,1.6448,1.6424,1.6408,1.638,1.6383,1.6372,1.6354,1.6335,1.6315,1.6338,1.63,1.6299,1.6306,1.6274,1.6272,1.6241,1.6284,1.6283,1.6283,0,1.6608,1.6583,1.6539,1.6509,1.6498,1.6477,1.6447,1.6425,1.6399,1.6389,1.6369,1.636,1.633,1.6339,1.6297,1.6313,1.6297,1.6286,1.6284,1.6278,1.6288,1.6265,1.6231,1.6225,1.6275,1.6276,1.6277,0,1.6593,1.6549,1.6517,1.6503,1.6469,1.6454,1.6438,1.6413,1.6395,1.6369,1.6357,1.6329,1.6312,1.629,1.6273,1.6281,1.6232,1.624,1.6222,1.6222,1.621,1.621,1.617,1.6203,1.6203,1.6203,1.6204,0,1.6561,1.6534,1.6509,1.6489,1.6458,1.6443,1.6412,1.6397,1.6374,1.635,1.6341,1.6319,1.6299,1.6274,1.6261,1.6227,1.622,1.6211,1.6207,1.621,1.6211,1.6198,1.6199,1.6202,1.6202,1.6203,1.6203,0,1.6538,1.6521,1.6485,1.6455,1.6447,1.6426,1.64,1.6379,1.6365,1.6334,1.6326,1.6303,1.6273,1.6254,1.6216,1.6207,1.617,1.6168,1.6178,1.6176,1.6158,1.6159,1.6106,1.6097,1.6139,1.6138,1.6138,0,1.6518,1.6497,1.6465,1.6448,1.6433,1.6407,1.6389,1.6373,1.6354,1.6323,1.6306,1.6275,1.625,1.6202,1.6181,1.6151,1.6147,1.6131,1.6143,1.6146,1.6145,1.6145,1.6142,1.6128,1.6128,1.6127,1.6127,0,1.6482,1.6475,1.6449,1.6421,1.64,1.6376,1.6353,1.634,1.632,1.6299,1.6269,1.6249,1.621,1.6179,1.6148,1.6131,1.6125,1.6124,1.6118,1.6119,1.6126,1.612,1.6171,1.6125,1.6125,1.6125,1.6125,1.6125,1.6459,1.6439,1.6413,1.6385,1.6366,1.6344,1.6323,1.6307,1.6281,1.6248,1.624,1.6207,1.6182,1.6139,1.6122,1.6096,1.6098,1.609,1.6087,1.6085,1.6083,1.6132,1.609,1.609,1.609,1.609,1.609,0,1.6421,1.6404,1.6378,1.6346,1.6324,1.6322,1.6296,1.6277,1.6248,1.6225,1.62,1.6164,1.6134,1.6112,1.6081,1.6064,1.606,1.6056,1.6056,1.6052,1.6084,1.6091,1.606,1.606,1.606,1.606,1.606,1.606,1.6398,1.6364,1.6354,1.6311,1.6294,1.6262,1.6247,1.6227,1.6208,1.6168,1.6144,1.613,1.6106,1.6074,1.6046,1.604,1.6028,1.6024,1.6017,1.6047,1.605,1.6053,1.606,1.6022,1.6022,1.5987,1.5987,1.5987]}]]